KINEIS-3C

Last updated on Thu Oct 23 2025 00:02:49 GMT+0000 (Coordinated Universal Time)

1 61220U 24172A 25295.48130558 .00003960 00000+0 63404-3 0 9991 2 61220 98.0302 23.1953 0002137 145.6387 214.4959 14.72309877 58099
UTC large
Height (km)
Speed (km/s)
/
Latitude / Longitude
Inclination (degrees)
Orbital Period (minutes)
Azimuth
Elevation
Range (km)
Doppler Factor

Next 0 passes for location: London (51.5072 / 0.1276)

Sorry there are no passes over London.